Location: Holkham
(52.9500°N, 0.8167°E)
Time: 20:26:54
(UTC+00:00)

Lacrosse 5 rocket - Pass Details

Date: 19 May 2025
Orbit: 419 x 515 km, 57.0° (Epoch: 21 June)

Event Time Altitude Azimuth Distance (km) Brightness Sun altitude
Rises 21:22:11 0° 294° (WNW) 2,492 5.8 -10.1°
Reaches altitude 10° 21:24:34 10° 282° (WNW) 1,594 4.4 -10.3°
Maximum altitude 21:27:35 26° 224° (SW) 917 2.3 -10.5°
Enters shadow 21:29:50 14° 173° (S) 1,326 2.7 -10.7°
